This is the latest recevied weather packets stored in our database for station/object VK4ZPK-13. If no packets are shown the sender has not sent any weather packets the latest 10 day(s).
| Time | Temp. | Humidity | Pressure | Rain* | Wind** | Luminosity | Snow |
|---|---|---|---|---|---|---|---|
| 1777851746 | 22.22° C | 96% | 1014.9 hPa | 0 mm | - | - | - |
| 1777849946 | 21.67° C | 97% | 1014.7 hPa | 0 mm | - | - | - |
| 1777848146 | 20.56° C | 98% | 1014.6 hPa | 0 mm | - | - | - |
| 1777846346 | 19.44° C | 97% | 1014.3 hPa | 0 mm | - | - | - |
| 1777844546 | 18.89° C | 97% | 1014.3 hPa | 0.25 mm | - | - | - |
| 1777842746 | 18.33° C | 97% | 1014.5 hPa | 0.25 mm | - | - | - |
| 1777840946 | 17.78° C | 96% | 1014.2 hPa | 0 mm | - | - | - |
| 1777839146 | 17.78° C | 95% | 1014 hPa | 0 mm | - | - | - |
| 1777837346 | 17.78° C | 95% | 1013.7 hPa | 0 mm | - | - | - |
| 1777835546 | 17.78° C | 95% | 1013.7 hPa | 0 mm | - | - | - |
| 1777833746 | 17.22° C | 94% | 1013.6 hPa | 0 mm | - | - | - |
| 1777831946 | 17.78° C | 94% | 1013.6 hPa | 0 mm | - | - | - |
| 1777830146 | 17.78° C | 94% | 1013.6 hPa | 0 mm | - | - | - |
| 1777828346 | 17.78° C | 93% | 1013.8 hPa | 0 mm | - | - | - |
| 1777826546 | 17.78° C | 93% | 1014 hPa | 0 mm | - | - | - |
| 1777824746 | 18.33° C | 93% | 1014.3 hPa | 0 mm | - | - | - |
| 1777822946 | 18.33° C | 92% | 1014.7 hPa | 0 mm | - | - | - |
| 1777821146 | 18.33° C | 92% | 1014.9 hPa | 0 mm | - | - | - |
| 1777819346 | 18.89° C | 92% | 1015.1 hPa | 0 mm | - | - | - |
| 1777817546 | 18.89° C | 92% | 1015.3 hPa | 0 mm | - | - | - |
| 1777815746 | 18.89° C | 91% | 1015.5 hPa | 0 mm | - | - | - |
| 1777754698 | 18.89° C | 93% | 1015.4 hPa | 0 mm | - | - | - |
| 1777752898 | 18.89° C | 92% | 1015.1 hPa | 0 mm | - | - | - |
| 1777751098 | 18.89° C | 92% | 1014.9 hPa | 0 mm | - | - | - |
| 1777749298 | 18.89° C | 90% | 1014.7 hPa | 0 mm | - | - | - |
* Rain latest hour (hover to see other rain measurements)
** Current wind speed in m/s (hover to see current wind gust speed)